User: anonymous   Login
Location: Stoke Bliss
(52.2667°N, 2.5167°W)
Time: 01:51:12
(UTC+00:00)
Language:

Cosmos 2327 Rocket - Orbit

View from above orbital plane
View from above orbital plane
View from above satellite
View from above satellite

Ground track
Ground track

The orbit data is extracted from the following two-line orbital elements,

1 23774U 96004B   21125.44501983  .00000031  00000-0  16476-4 0  9999
2 23774  82.9826  33.4421 0043467 341.0367  18.9169 13.76550131270662
Epoch (UTC): 05 May 2021 10:40:49
Eccentricity: 0.0043467
inclination: 82.9826°
perigee height: 944 km
apogee height: 1008 km
right ascension of ascending node: 33.4421°
argument of perigee: 341.0367°
revolutions per day: 13.76550131
mean anomaly at epoch: 18.9169°
orbit number at epoch: 27066

The dashed part of the orbit path shows where the satellite is in the earth's shadow,  

DLR